Location: Abraham Lincoln Continuation High School
(33.9711°N, 117.3662°W)
Time: 14:54:47
(UTC+00:00)

BREEZE-M DEB (TANK) - Pass Details

Date: 21 September 2020
Orbit: 315 x 16294 km, 49.4° (Epoch: 27 October)

Event Time Altitude Azimuth Distance (km) Brightness Sun altitude
Rises 02:44:15 0° 324° (NW) 2,324 6.3 -12.4°
Reaches altitude 10° 02:45:54 10° 341° (NNW) 1,745 5.3 -12.8°
Maximum altitude 02:48:59 26° 42° (NE) 1,602 4.4 -13.4°
Enters shadow 02:53:03 17° 85° (E) 3,018 5.4 -14.2°
